Dewpoint
13 9 0 -5 -1 2 5 6 7 9 10 11 12 12 12 12 11 10 9 8 8 7 3 -3 10 13 13 13 12 10 10 8 7 5 1 -4 -4 -8 -8 -9 4 9 11
11 7 -3 -5 -4 -3 -2 0 1 2 3 6 11 11 12 10 10 9 8 4 -0 -4 -6 -2 10 11 11 11 10 10 7 0 -6 -3 2 3 4 1 -5 -3 3 6 6
7 10 2 -2 -3 -2 -0 1 2 0 -0 3 1 9 11 12 10 9 1 -4 -5 -5 -4 0 9 10 10 10 10 6 -1 -6 2 5 5 3 4 5 -1 -5 -4 1 4
8 7 2 1 0 1 1 -1 -2 -3 2 9 8 11 12 11 10 5 -2 -2 -2 -3 -4 -5 -3 2 2 2 0 -5 -3 4 8 9 9 7 6 7 5 1 -3 -2 3
8 5 3 2 2 3 3 -1 -4 -4 -0 3 9 8 8 7 8 2 1 0 -0 -1 -2 -3 -3 -3 -3 -3 -1 1 2 8 9 9 10 11 9 9 8 6 4 2 2
12 6 5 5 5 5 5 1 -3 -4 1 4 3 6 4 4 5 4 3 1 0 0 1 1 1 2 3 4 5 5 6 7 11 11 11 11 10 11 9 7 9 9 8
14 10 8 7 7 7 6 1 -3 -3 3 5 5 5 6 7 7 6 4 2 0 1 2 4 5 6 7 6 7 7 7 8 10 11 10 11 10 9 8 6 9 10 11
14 14 14 9 7 7 6 1 -3 -3 1 6 7 9 10 11 10 8 5 3 0 1 3 4 7 7 8 8 7 7 6 8 11 11 10 10 9 8 2 9 11 10 10
15 15 15 13 11 10 7 3 -3 -5 -1 4 7 9 9 10 10 8 6 3 0 0 3 5 6 6 7 7 6 6 5 6 7 5 6 6 6 4 -2 -1 3 3 3
14 14 14 13 11 10 9 5 0 -4 -4 1 6 8 9 10 12 10 8 4 1 0 3 4 5 7 7 5 5 1 3 4 1 2 4 2 1 -0 -3 -2 -1 7 9
13 13 14 12 11 11 11 8 4 -0 -4 -1 2 7 9 9 10 11 8 4 1 1 4 5 6 6 6 6 6 1 -3 -3 -3 -4 -3 -3 -2 -2 5 7 7 8 9
13 13 13 14 12 12 12 10 6 3 -2 -1 1 3 7 7 6 7 6 5 2 2 5 6 6 7 7 7 4 -4 -5 -5 -6 -6 -6 -4 -4 6 8 9 8 6 8
12 13 14 14 14 13 11 11 10 6 2 -1 0 1 3 6 5 4 5 4 2 4 6 7 5 6 7 1 -4 -5 -7 -9 -10 -9 -7 -6 1 9 9 7 4 3 4
12 12 13 14 14 14 13 13 12 10 5 2 0 1 6 7 7 4 6 5 6 8 7 7 7 7 3 -5 -6 -9 -12 -12 -13 -10 -8 -7 -6 1 0 -2 -2 -1 -0
11 12 13 13 13 13 13 14 14 11 10 8 7 8 8 9 4 2 8 10 8 9 7 6 7 6 -4 -6 -10 -16 -17 -14 -14 -11 -9 -7 -7 -6 -4 -3 -3 -4 -4
7 11 12 13 13 13 13 13 13 12 12 12 11 12 11 10 3 6 9 11 11 9 7 8 8 -4 -6 -11 -16 -18 -16 -14 -14 -12 -9 -7 -9 -8 -7 -6 -6 -7 -10
3 10 11 12 13 13 13 13 13 13 13 12 12 12 12 10 7 8 10 11 10 7 8 8 -0 -5 -9 -12 -15 -17 -17 -14 -13 -11 -9 -9 -10 -10 -10 -11 -12 -12 -15
3 3 8 10 11 13 13 14 14 13 13 12 12 12 11 11 10 10 11 11 8 9 9 6 -5 -6 -7 -8 -11 -14 -16 -16 -12 -10 -9 -9 -11 -11 -11 -11 -13 -19 -19
3 3 4 8 9 10 12 12 13 14 13 12 12 12 12 11 11 11 10 10 9 9 8 -3 -4 -4 -3 -5 -7 -11 -14 -15 -12 -10 -10 -10 -10 -10 -12 -15 -18 -19 -18
1 2 2 5 8 9 8 10 11 14 13 13 12 12 12 11 11 11 11 9 9 9 6 -3 -2 -1 -2 -3 -6 -10 -13 -12 -12 -10 -9 -10 -9 -13 -14 -15 -17 -17 -16
-1 -1 -0 4 7 9 9 10 11 12 13 13 12 12 12 11 11 11 10 9 9 9 1 -2 -1 -0 -1 -1 -4 -10 -11 -11 -11 -10 -9 -7 -7 -12 -13 -14 -13 -14 -14
-0 -1 -1 -0 3 8 9 8 7 11 12 12 12 12 12 11 11 11 10 9 9 9 -3 -1 -0 0 -0 -0 -2 -8 -11 -10 -10 -10 -11 -10 -10 -11 -12 -12 -12 -13 -14
-1 -1 0 -1 0 6 8 7 7 10 10 12 12 12 11 12 11 10 10 9 8 6 -2 -0 0 0 0 -0 -1 -3 -9 -12 -13 -14 -13 -13 -13 -13 -12 -12 -12 -14 -14
-3 -2 -1 1 1 3 5 6 7 7 9 12 11 11 11 12 12 11 10 9 8 2 -1 0 0 0 0 0 -0 -2 -5 -10 -14 -15 -14 -13 -12 -12 -13 -13 -15 -14 -15
-5 -4 -3 -0 0 3 4 4 6 6 7 9 10 11 11 11 12 11 10 9 5 -2 -1 0 0 0 0 0 0 -1 -4 -9 -13 -14 -13 -14 -14 -15 -16 -16 -15 -16 -17
-4 -4 -4 -4 1 1 4 5 5 7 6 9 11 11 12 11 11 11 10 8 2 -2 -1 0 0 -0 -0 -0 -0 -1 -4 -9 -13 -14 -13 -14 -14 -17 -16 -15 -16 -19 -18
Wind_Speed
14 13 13 14 15 15 14 13 12 11 10 9 9 7 5 4 2 1 2 4 4 2 1 4 12 15 13 10 7 4 3 1 1 2 2 2 4 7 7 3 3 3 1
14 18 15 15 16 16 15 13 11 11 10 10 10 8 6 4 4 3 2 2 2 4 5 8 13 11 8 4 2 1 4 4 6 7 6 5 7 9 8 6 3 1 4
16 20 17 16 16 16 15 12 10 9 10 10 12 12 9 8 6 4 5 7 9 10 10 10 11 10 8 4 3 3 4 9 11 10 7 6 8 9 9 6 5 2 3
16 21 18 17 16 15 14 12 10 10 11 11 15 17 13 9 6 5 8 11 12 13 13 12 9 6 3 1 2 6 8 11 11 9 9 8 9 7 9 7 6 7 5
17 19 19 17 16 14 13 11 10 11 10 13 14 14 11 9 11 10 10 11 12 12 13 13 12 11 10 8 8 9 11 10 8 9 9 5 7 6 8 6 5 5 4
15 18 19 18 16 14 13 12 11 11 12 15 15 16 17 16 13 10 10 11 11 11 11 11 12 11 11 10 10 10 10 8 9 8 5 3 7 5 9 5 5 6 6
15 18 16 18 16 14 13 11 12 13 14 17 17 17 16 14 12 9 9 10 10 10 10 11 11 10 10 9 8 7 6 5 6 4 1 4 5 7 7 5 2 3 3
13 14 13 13 15 13 13 11 11 13 14 16 16 14 13 11 9 8 8 8 8 8 9 9 8 7 7 7 6 6 6 5 4 3 4 6 5 6 5 4 3 4 5
17 16 15 14 14 13 12 11 10 10 13 15 15 14 13 10 9 9 7 6 7 6 7 6 6 5 5 5 5 5 4 4 2 1 3 4 6 7 6 5 3 4 5
18 16 15 19 17 16 14 13 11 10 12 14 14 14 13 10 9 9 8 6 6 6 5 4 3 3 3 4 5 4 1 1 3 3 6 6 8 8 8 7 5 3 3
20 18 14 17 19 16 14 14 13 12 12 13 14 14 13 11 10 8 6 6 5 4 4 2 1 1 2 3 4 3 2 2 7 8 9 9 9 8 5 3 1 1 2
22 19 16 13 15 17 17 15 14 14 14 15 14 13 13 12 10 9 7 6 5 4 4 2 0 1 3 5 5 6 8 7 9 10 10 10 9 1 1 2 2 2 3
23 20 19 16 15 14 15 17 16 14 14 15 15 15 15 13 11 9 7 6 6 6 5 4 2 1 4 4 6 8 10 10 9 10 9 9 2 6 5 2 2 3 6
24 25 23 19 17 15 12 17 15 15 15 15 15 15 16 13 11 10 8 8 7 5 6 4 3 4 5 7 9 9 8 8 9 8 8 7 4 6 4 4 4 4 5
27 25 28 27 23 21 19 19 19 16 15 15 16 15 15 14 15 15 14 11 9 7 6 5 6 6 7 8 9 8 7 5 7 7 8 6 2 4 3 4 5 6 7
24 28 26 29 28 27 25 22 22 18 16 14 13 13 15 14 15 17 15 15 12 11 9 8 7 7 8 7 7 6 5 4 5 7 7 6 4 3 4 5 6 7 9
19 25 28 28 28 30 31 26 25 20 19 16 16 17 16 15 17 20 18 18 15 13 10 9 8 7 6 5 5 5 4 4 6 6 7 7 5 5 5 5 7 9 12
21 25 28 29 29 28 30 32 28 25 24 23 21 22 19 19 17 17 18 19 16 12 10 9 7 5 4 4 5 5 5 4 4 6 7 9 7 8 8 9 11 12 12
32 26 30 34 33 31 29 30 30 28 30 26 25 27 23 22 20 21 20 18 15 13 11 9 6 3 2 4 5 4 4 2 2 5 7 7 8 9 11 12 13 14 12
37 35 31 38 37 34 29 30 31 29 32 28 28 29 29 28 24 23 20 16 14 13 12 9 5 2 2 3 4 4 2 3 1 4 7 9 10 12 16 15 15 13 19
36 36 39 33 39 40 36 33 31 32 33 32 31 31 29 29 27 25 21 18 16 14 13 10 6 3 1 3 4 2 0 1 1 3 6 8 12 15 16 18 17 20 22
26 36 40 37 36 44 42 37 33 32 36 34 34 32 30 27 29 28 22 20 16 16 14 11 7 3 1 3 4 2 1 2 3 4 5 10 13 13 14 16 20 23 26
31 29 34 36 31 42 42 39 36 34 38 40 37 34 33 32 33 29 24 21 18 17 14 11 7 4 1 3 5 4 2 2 6 6 9 10 13 14 16 18 21 26 26
38 30 32 33 30 38 43 43 42 42 41 45 42 39 34 35 34 30 27 24 21 18 16 12 8 5 2 3 4 5 4 5 3 4 9 12 13 16 18 20 25 22 23
23 38 27 34 37 30 45 46 43 43 42 44 44 42 37 38 35 32 29 25 24 21 18 14 9 6 4 5 5 6 6 7 8 9 15 14 19 20 21 21 23 21 19
13 13 27 31 37 40 37 44 45 44 41 45 47 43 40 39 38 34 31 28 25 22 18 15 11 7 6 6 7 8 8 8 10 11 16 23 26 28 26 24 21 19 18
Wind_Direction
185 178 164 152 149 150 150 149 151 160 171 179 176 170 184 168 151 359 20 350 328 344 13 118 128 95 120 126 108 100 355 355 322 291 299 354 27 18 12 9 115 122 225
191 172 165 153 147 147 144 141 143 151 166 180 172 176 186 175 149 115 51 357 69 97 99 128 139 134 126 123 81 254 340 40 78 90 85 76 58 33 29 41 110 314 22
182 168 160 152 150 143 136 133 135 141 148 154 167 167 161 143 154 109 65 85 85 86 90 122 151 153 162 186 235 313 40 90 103 93 68 50 50 37 26 26 26 20 52
186 166 159 155 152 145 135 130 124 130 132 140 145 160 163 163 149 101 99 93 90 91 93 98 112 142 161 150 43 61 91 97 92 79 66 32 27 32 25 21 24 27 38
176 168 163 159 153 149 138 125 121 127 128 137 149 159 164 159 139 123 106 96 93 92 92 93 95 96 98 94 86 81 94 96 88 71 58 19 24 23 17 17 32 35 41
172 174 169 161 158 153 144 136 133 132 129 133 136 143 137 134 137 125 109 99 95 91 89 91 93 92 91 88 83 82 85 92 86 63 71 19 3 2 344 356 26 26 23
181 174 171 170 164 159 153 146 140 141 139 143 139 140 140 139 139 126 116 106 98 92 89 89 88 86 82 76 72 69 77 103 122 113 132 266 305 323 328 327 20 339 318
193 177 188 190 172 166 160 155 149 149 146 151 153 152 152 149 154 142 127 112 104 99 97 94 87 77 62 53 48 48 60 110 131 173 209 266 296 309 332 6 270 268 272
202 196 203 197 185 172 169 165 159 156 156 159 158 155 156 154 164 155 145 130 118 110 111 104 89 73 58 48 50 48 73 120 181 233 248 276 297 304 315 311 298 305 294
200 211 225 205 199 188 180 173 170 172 166 164 162 157 158 156 155 164 160 149 137 131 129 118 97 70 53 65 59 51 116 117 293 291 282 285 288 295 299 287 305 307 301
209 220 217 212 207 197 192 182 179 181 178 171 166 166 170 171 178 179 171 165 160 155 148 140 110 51 31 10 11 350 331 308 288 283 283 287 292 304 298 314 308 225 282
205 216 218 216 210 209 204 196 190 190 189 182 179 178 182 189 192 195 193 198 187 188 179 192 222 23 338 330 333 320 306 298 289 281 288 296 309 212 89 156 149 308 290
202 215 218 218 210 215 216 200 205 198 198 188 186 186 193 198 197 195 195 209 207 205 193 203 194 294 307 306 308 307 307 304 293 288 291 298 190 102 119 81 331 301 305
209 206 213 219 217 221 227 210 215 212 205 199 193 187 198 205 216 208 209 206 206 201 206 231 265 295 304 308 311 309 309 300 292 287 295 303 276 227 268 313 325 320 318
216 211 202 207 216 224 225 213 220 209 202 202 200 199 206 211 220 202 204 208 207 230 229 241 263 281 293 303 305 312 316 299 291 288 295 315 284 249 281 306 317 316 318
224 217 210 207 207 215 217 222 222 219 201 209 209 214 220 220 205 200 208 212 221 240 241 250 261 272 288 298 309 313 322 312 297 282 287 299 293 270 281 293 307 310 313
227 218 214 214 218 219 218 218 213 212 208 219 219 218 225 217 202 202 210 221 235 234 240 243 251 274 289 305 312 316 323 315 286 277 284 295 299 296 304 311 304 306 307
237 228 221 220 225 225 224 222 213 202 207 211 213 209 215 224 214 212 221 232 235 237 241 240 250 259 284 316 325 323 318 307 264 277 290 302 307 315 312 306 307 311 309
231 237 228 225 227 228 227 226 216 206 206 214 211 209 216 218 218 220 229 234 232 231 238 233 236 248 307 339 333 332 338 334 246 253 279 293 311 313 317 310 317 314 315
240 239 243 232 227 227 227 224 218 208 203 211 214 212 219 221 212 223 230 226 224 231 225 224 223 237 325 1 350 342 17 44 350 288 276 294 309 311 315 314 320 316 320
241 241 243 234 226 221 222 220 217 208 203 213 214 216 225 221 219 227 221 216 223 230 219 215 212 213 343 18 10 358 110 349 332 297 265 284 299 305 311 317 317 318 321
245 240 239 241 236 224 219 220 227 220 207 215 214 216 225 222 229 221 222 217 223 226 214 209 203 202 264 17 23 29 337 274 286 286 275 281 282 293 302 305 311 316 318
251 248 241 240 241 230 221 221 225 220 214 212 215 220 225 224 219 219 218 216 216 217 214 209 207 207 264 358 16 24 344 305 312 263 249 253 270 283 295 300 305 310 313
252 252 248 245 238 233 225 221 219 222 215 217 217 218 222 217 218 215 215 214 212 214 212 212 215 227 271 328 347 346 334 299 294 281 254 258 269 280 293 293 301 306 308
256 239 250 242 245 233 229 227 217 222 222 221 219 221 216 220 214 213 213 214 208 207 209 215 220 238 271 305 324 328 320 306 288 276 289 277 282 291 296 304 309 312 305
243 256 248 244 240 238 233 227 223 222 227 224 218 216 210 221 208 211 213 213 211 209 211 215 222 237 269 298 312 315 311 302 293 279 281 294 300 307 310 312 314 314 311
Height
1517 1518 1520 1522 1523 1524 1526 1527 1528 1530 1531 1533 1534 1535 1535 1536 1537 1538 1538 1538 1538 1538 1538 1539 1541 1540 1541 1542 1542 1543 1543 1543 1543 1543 1544 1544 1543 1543 1543 1542 1542 1543 1544
1516 1517 1519 1521 1522 1523 1525 1527 1528 1529 1530 1532 1534 1535 1535 1536 1537 1538 1538 1538 1537 1537 1538 1539 1540 1542 1543 1543 1543 1543 1543 1542 1542 1542 1542 1542 1542 1542 1543 1542 1542 1542 1542
1515 1517 1519 1521 1522 1524 1525 1527 1528 1529 1530 1530 1532 1535 1536 1537 1537 1538 1537 1537 1537 1537 1538 1539 1540 1542 1543 1543 1543 1543 1542 1542 1542 1542 1542 1542 1542 1542 1542 1542 1542 1542 1541
1515 1516 1519 1520 1522 1523 1525 1527 1528 1528 1529 1530 1531 1534 1535 1536 1537 1538 1538 1538 1538 1538 1538 1539 1540 1541 1542 1543 1543 1542 1542 1542 1543 1543 1543 1541 1542 1543 1543 1542 1542 1541 1541
1514 1516 1518 1519 1522 1524 1524 1526 1527 1528 1529 1530 1532 1533 1535 1536 1537 1538 1539 1539 1539 1539 1539 1539 1540 1541 1542 1542 1543 1543 1543 1543 1543 1543 1543 1543 1543 1543 1542 1543 1542 1541 1541
1514 1516 1518 1519 1521 1523 1524 1526 1527 1527 1528 1529 1531 1533 1535 1536 1538 1539 1539 1539 1540 1540 1540 1540 1540 1542 1543 1543 1544 1544 1544 1544 1544 1544 1543 1543 1542 1542 1542 1542 1542 1541 1541
1512 1516 1517 1519 1521 1523 1524 1525 1526 1527 1528 1530 1531 1533 1535 1537 1538 1539 1539 1539 1540 1540 1540 1541 1542 1542 1543 1543 1544 1544 1544 1544 1544 1543 1543 1543 1542 1541 1541 1540 1541 1541 1539
1512 1515 1517 1519 1520 1522 1523 1524 1526 1526 1528 1529 1531 1533 1535 1536 1538 1539 1539 1539 1540 1540 1541 1541 1542 1543 1543 1544 1544 1544 1543 1543 1543 1542 1542 1542 1541 1540 1539 1539 1539 1539 1538
1512 1515 1516 1518 1520 1522 1523 1524 1526 1527 1528 1529 1531 1533 1535 1536 1537 1538 1539 1540 1540 1541 1541 1542 1542 1543 1543 1543 1543 1543 1543 1542 1542 1541 1540 1540 1540 1539 1538 1537 1537 1537 1536
1513 1515 1516 1517 1519 1520 1522 1523 1525 1527 1528 1529 1531 1533 1534 1536 1537 1537 1538 1539 1540 1540 1542 1542 1542 1543 1542 1542 1542 1542 1542 1541 1540 1539 1539 1538 1538 1538 1536 1535 1535 1535 1535
1511 1513 1515 1516 1517 1519 1521 1522 1524 1526 1527 1528 1530 1532 1534 1534 1536 1537 1538 1539 1540 1540 1541 1541 1542 1541 1541 1541 1540 1540 1540 1540 1538 1537 1537 1537 1537 1535 1533 1534 1533 1533 1534
1508 1509 1513 1515 1516 1517 1519 1521 1523 1524 1526 1527 1529 1531 1533 1534 1535 1536 1537 1538 1539 1540 1539 1541 1541 1541 1540 1539 1539 1537 1538 1537 1536 1535 1534 1535 1534 1533 1533 1531 1531 1532 1532
1506 1508 1509 1512 1514 1515 1517 1519 1520 1523 1525 1527 1528 1530 1531 1532 1534 1535 1536 1537 1538 1539 1538 1538 1539 1539 1539 1538 1537 1536 1534 1533 1532 1533 1533 1533 1532 1532 1531 1530 1529 1530 1531
1503 1504 1505 1508 1511 1512 1514 1516 1518 1521 1523 1525 1527 1529 1530 1530 1531 1533 1534 1535 1536 1537 1537 1537 1538 1537 1536 1535 1534 1533 1532 1530 1530 1530 1531 1530 1529 1530 1529 1529 1529 1530 1529
1501 1502 1503 1505 1507 1509 1512 1514 1516 1518 1519 1523 1524 1526 1527 1530 1530 1531 1532 1532 1533 1535 1536 1536 1537 1536 1534 1533 1531 1530 1530 1528 1528 1528 1529 1528 1528 1528 1528 1528 1528 1528 1527
1496 1498 1501 1501 1504 1506 1509 1510 1511 1514 1516 1520 1520 1522 1525 1527 1528 1528 1529 1530 1531 1532 1533 1535 1535 1534 1532 1531 1529 1528 1528 1527 1527 1527 1526 1526 1527 1526 1526 1526 1525 1526 1526
1493 1494 1496 1498 1499 1502 1504 1507 1509 1511 1514 1516 1518 1521 1523 1524 1524 1526 1527 1529 1530 1531 1532 1532 1532 1531 1530 1529 1527 1526 1526 1525 1525 1525 1525 1525 1525 1525 1524 1524 1524 1524 1523
1488 1490 1491 1493 1495 1497 1500 1503 1506 1508 1511 1513 1516 1518 1520 1521 1523 1524 1525 1527 1528 1529 1531 1530 1530 1529 1528 1527 1525 1524 1524 1524 1523 1524 1524 1524 1524 1523 1522 1523 1522 1522 1521
1481 1485 1485 1486 1489 1492 1495 1498 1501 1504 1508 1510 1513 1515 1516 1518 1520 1521 1523 1524 1524 1526 1528 1528 1528 1527 1526 1525 1524 1523 1522 1521 1522 1523 1523 1523 1522 1521 1521 1521 1520 1519 1518
1476 1479 1482 1480 1482 1486 1490 1493 1497 1500 1504 1507 1509 1510 1512 1514 1517 1518 1520 1521 1522 1522 1524 1525 1526 1525 1525 1523 1523 1521 1521 1520 1520 1521 1521 1521 1520 1520 1519 1518 1518 1517 1515
1470 1472 1474 1475 1474 1478 1483 1486 1490 1493 1497 1501 1504 1506 1507 1510 1513 1514 1515 1517 1519 1520 1521 1522 1523 1523 1523 1522 1522 1520 1520 1519 1519 1519 1519 1519 1518 1517 1516 1516 1515 1513 1512
1461 1464 1467 1469 1469 1468 1472 1478 1483 1486 1491 1496 1499 1501 1503 1507 1508 1510 1512 1513 1515 1517 1518 1519 1520 1521 1522 1521 1520 1519 1518 1519 1518 1517 1517 1518 1517 1515 1514 1513 1511 1509 1507
1453 1456 1459 1462 1464 1463 1466 1472 1476 1480 1485 1489 1492 1495 1497 1500 1502 1506 1508 1510 1512 1513 1515 1517 1518 1518 1519 1519 1518 1518 1517 1517 1516 1515 1514 1514 1514 1513 1511 1510 1508 1506 1503
1446 1449 1453 1455 1458 1458 1459 1462 1466 1470 1474 1479 1483 1486 1491 1495 1497 1501 1504 1507 1509 1510 1512 1514 1514 1515 1516 1516 1516 1515 1515 1515 1514 1513 1512 1511 1510 1510 1508 1506 1504 1501 1499
1438 1441 1444 1448 1451 1454 1451 1453 1458 1463 1468 1473 1477 1480 1485 1489 1493 1496 1500 1503 1505 1507 1508 1510 1511 1512 1512 1512 1512 1512 1511 1511 1510 1510 1506 1506 1506 1505 1503 1501 1498 1495 1493
1432 1433 1437 1440 1442 1445 1447 1448 1451 1455 1461 1465 1470 1473 1477 1483 1487 1491 1496 1499 1502 1504 1505 1507 1507 1509 1509 1509 1509 1508 1508 1507 1506 1506 1503 1500 1497 1495 1494 1494 1492 1490 1487